| time (UTC) | temp C | wind direction | speed KPH | gust KPH | rain 1hr cm | rain 24hr cm | rain mn cm | humidity % | barometer mb |
| 20260906214527 | 38 | 152 | 6.4 | 22.5 | 0.00 | 0.00 | 0.00 | 31 | 1006.3 |
| 20260906213022 | 38 | 100 | 3.2 | 14.5 | 0.00 | 0.00 | 0.00 | 31 | 1006.4 |
| 20260906211517 | 38 | 150 | 8.0 | 19.3 | 0.00 | 0.00 | 0.00 | 30 | 1006.7 |
| 20260906210016 | 38 | 84 | 6.4 | 11.3 | 0.00 | 0.00 | 0.00 | 31 | 1007.0 |
| 20260906204514 | 38 | 162 | 6.4 | 22.5 | 0.00 | 0.00 | 0.00 | 31 | 1007.1 |
| 20260906203012 | 38 | 94 | 6.4 | 17.7 | 0.00 | 0.00 | 0.00 | 31 | 1007.2 |
| 20260906201510 | 38 | 79 | 3.2 | 12.9 | 0.00 | 0.00 | 0.00 | 32 | 1007.3 |
| 20260906200009 | 38 | 69 | 6.4 | 20.9 | 0.00 | 0.00 | 0.00 | 32 | 1007.7 |
| 20260906194507 | 37 | 134 | 3.2 | 14.5 | 0.00 | 0.00 | 0.00 | 33 | 1007.9 |
| 20260906193005 | 38 | 57 | 4.8 | 17.7 | 0.00 | 0.00 | 0.00 | 32 | 1008.0 |
| 20260906191505 | 37 | 122 | 11.3 | 20.9 | 0.00 | 0.00 | 0.00 | 33 | 1008.2 |
| 20260906190003 | 37 | 207 | 3.2 | 19.3 | 0.00 | 0.00 | 0.00 | 34 | 1008.4 |
| 20260906184601 | 37 | 140 | 8.0 | 17.7 | 0.00 | 0.00 | 0.00 | 36 | 1008.5 |
| 20260906183105 | 37 | 139 | 4.8 | 24.1 | 0.00 | 0.00 | 0.00 | 36 | 1008.8 |
| 20260906181557 | 37 | 115 | 9.7 | 20.9 | 0.00 | 0.00 | 0.00 | 35 | 1009.0 |
| 20260906180055 | 37 | 120 | 4.8 | 17.7 | 0.00 | 0.00 | 0.00 | 36 | 1009.2 |
| 20260906174553 | 36 | 104 | 6.4 | 14.5 | 0.00 | 0.00 | 0.00 | 38 | 1009.5 |
| 20260906173053 | 36 | 224 | 3.2 | 16.1 | 0.00 | 0.00 | 0.00 | 39 | 1009.8 |
| 20260906171554 | 36 | 58 | 4.8 | 14.5 | 0.00 | 0.00 | 0.00 | 40 | 1010.0 |
| 20260906170047 | 36 | 70 | 3.2 | 11.3 | 0.00 | 0.00 | 0.00 | 42 | 1010.2 |
| 20260906164545 | 35 | 85 | 4.8 | 12.9 | 0.00 | 0.00 | 0.00 | 42 | 1010.2 |
| 20260906163048 | 35 | 69 | 3.2 | 9.7 | 0.00 | 0.00 | 0.00 | 44 | 1010.4 |
| 20260906161542 | 35 | 61 | 0.0 | 8.0 | 0.00 | 0.00 | 0.00 | 44 | 1010.4 |
| 20260906160047 | 34 | 217 | 1.6 | 6.4 | 0.00 | 0.00 | 0.00 | 46 | 1010.4 |
| 20260906154546 | 33 | 136 | 0.0 | 1.6 | 0.00 | 0.00 | 0.00 | 48 | 1010.4 |
| 20260906153032 | 33 | 155 | 0.0 | 1.6 | 0.00 | 0.00 | 0.00 | 50 | 1010.3 |
| 20260906151528 | 32 | 113 | 0.0 | 3.2 | 0.00 | 0.00 | 0.00 | 52 | 1010.2 |
| 20260906150036 | 32 | 118 | 0.0 | 3.2 | 0.00 | 0.00 | 0.00 | 53 | 1010.1 |
| 20260906144526 | 31 | 113 | 0.0 | 3.2 | 0.00 | 0.00 | 0.00 | 56 | 1010.2 |
| 20260906143017 | 30 | 127 | 0.0 | 3.2 | 0.00 | 0.00 | 0.00 | 59 | 1010.2 |
| 20260906141515 | 29 | 96 | 0.0 | 6.4 | 0.00 | 0.00 | 0.00 | 62 | 1010.2 |
| 20260906140020 | 28 | 82 | 1.6 | 8.0 | 0.00 | 0.00 | 0.00 | 63 | 1010.3 |
| 20260906134527 | 28 | 126 | 0.0 | 1.6 | 0.00 | 0.00 | 0.00 | 63 | 1010.2 |
| 20260906133007 | 28 | 127 | 0.0 | 1.6 | 0.00 | 0.00 | 0.00 | 63 | 1010.1 |
| 20260906131507 | 27 | 129 | 0.0 | 1.6 | 0.00 | 0.00 | 0.00 | 66 | 1009.9 |
| 20260906130003 | 26 | 129 | 0.0 | 1.6 | 0.00 | 0.00 | 0.00 | 68 | 1009.7 |
| 20260906124500 | 25 | 129 | 0.0 | 0.0 | 0.00 | 0.00 | 0.00 | 72 | 1009.6 |
| 20260906123101 | 24 | 129 | 0.0 | 0.0 | 0.00 | 0.00 | 0.00 | 74 | 1009.5 |
| 20260906121557 | 24 | 130 | 0.0 | 0.0 | 0.00 | 0.00 | 0.00 | 74 | 1009.3 |
| 20260906120055 | 24 | 130 | 0.0 | 0.0 | 0.00 | 0.00 | 0.00 | 73 | 1009.0 |
| 20260906114605 | 24 | 130 | 0.0 | 0.0 | 0.00 | 0.00 | 0.00 | 72 | 1009.0 |
| 20260906113052 | 25 | 130 | 0.0 | 0.0 | 0.00 | 0.00 | 0.00 | 72 | 1008.7 |
| 20260906111553 | 25 | 130 | 0.0 | 0.0 | 0.00 | 0.00 | 0.00 | 71 | 1008.8 |
| 20260906110045 | 25 | 130 | 0.0 | 0.0 | 0.00 | 0.00 | 0.00 | 70 | 1008.6 |
| 20260906104556 | 25 | 130 | 0.0 | 0.0 | 0.00 | 0.00 | 0.00 | 68 | 1008.6 |
| 20260906103042 | 25 | 130 | 0.0 | 3.2 | 0.00 | 0.00 | 0.00 | 68 | 1008.5 |
| 20260906101542 | 25 | 138 | 0.0 | 0.0 | 0.00 | 0.00 | 0.00 | 68 | 1008.5 |
| 20260906100041 | 25 | 138 | 0.0 | 0.0 | 0.00 | 0.00 | 0.00 | 68 | 1008.4 |
| 20260906094539 | 25 | 138 | 0.0 | 0.0 | 0.00 | 0.00 | 0.00 | 67 | 1008.3 |
| 20260906093037 | 26 | 138 | 0.0 | 0.0 | 0.00 | 0.00 | 0.00 | 66 | 1008.3 |
| 20260906091537 | 26 | 138 | 0.0 | 0.0 | 0.00 | 0.00 | 0.00 | 66 | 1008.2 |
| 20260906090036 | 26 | 138 | 0.0 | 0.0 | 0.00 | 0.00 | 0.00 | 64 | 1008.1 |
| 20260906084530 | 26 | 138 | 0.0 | 0.0 | 0.00 | 0.00 | 0.00 | 63 | 1008.2 |
| 20260906083028 | 27 | 138 | 0.0 | 1.6 | 0.00 | 0.00 | 0.00 | 62 | 1008.1 |
| 20260906081527 | 27 | 138 | 0.0 | 0.0 | 0.00 | 0.00 | 0.00 | 62 | 1008.0 |
| 20260906080026 | 27 | 138 | 0.0 | 0.0 | 0.00 | 0.00 | 0.00 | 61 | 1008.1 |
| 20260906074528 | 27 | 138 | 0.0 | 0.0 | 0.00 | 0.00 | 0.00 | 60 | 1007.9 |
| 20260906073026 | 27 | 138 | 0.0 | 1.6 | 0.00 | 0.00 | 0.00 | 59 | 1008.1 |
| 20260906071525 | 28 | 138 | 0.0 | 3.2 | 0.00 | 0.00 | 0.00 | 58 | 1008.1 |
| 20260906070020 | 28 | 147 | 0.0 | 3.2 | 0.00 | 0.00 | 0.00 | 56 | 1008.0 |
| 20260906064519 | 28 | 150 | 1.6 | 8.0 | 0.00 | 0.00 | 0.00 | 55 | 1008.1 |
| 20260906063017 | 28 | 144 | 3.2 | 8.0 | 0.00 | 0.00 | 0.00 | 55 | 1008.2 |
| 20260906061518 | 27 | 133 | 1.6 | 6.4 | 0.00 | 0.00 | 0.00 | 56 | 1008.2 |
| 20260906060013 | 28 | 104 | 0.0 | 0.0 | 0.00 | 0.00 | 0.00 | 55 | 1008.2 |
| 20260906054512 | 28 | 104 | 0.0 | 0.0 | 0.00 | 0.00 | 0.00 | 55 | 1008.3 |
| 20260906053009 | 28 | 104 | 0.0 | 0.0 | 0.00 | 0.00 | 0.00 | 54 | 1008.2 |
| 20260906051507 | 28 | 104 | 0.0 | 0.0 | 0.00 | 0.00 | 0.00 | 54 | 1008.3 |
| 20260906050005 | 28 | 104 | 0.0 | 0.0 | 0.00 | 0.00 | 0.00 | 53 | 1008.2 |
| 20260906044505 | 28 | 104 | 0.0 | 0.0 | 0.00 | 0.00 | 0.00 | 52 | 1008.3 |
| 20260906043005 | 29 | 104 | 0.0 | 1.6 | 0.00 | 0.00 | 0.00 | 51 | 1008.3 |
| 20260906041506 | 30 | 103 | 0.0 | 4.8 | 0.00 | 0.00 | 0.00 | 50 | 1008.4 |
| 20260906040002 | 30 | 105 | 0.0 | 4.8 | 0.00 | 0.00 | 0.00 | 49 | 1008.4 |
| 20260906034601 | 30 | 111 | 0.0 | 3.2 | 0.00 | 0.00 | 0.00 | 49 | 1008.2 |
| 20260906033108 | 30 | 115 | 0.0 | 3.2 | 0.00 | 0.00 | 0.00 | 47 | 1008.2 |
| 20260906031600 | 30 | 85 | 0.0 | 8.0 | 0.00 | 0.00 | 0.00 | 47 | 1008.1 |
| 20260906030054 | 31 | 148 | 0.0 | 6.4 | 0.00 | 0.00 | 0.00 | 45 | 1007.7 |
| 20260906024601 | 31 | 129 | 0.0 | 1.6 | 0.00 | 0.00 | 0.00 | 44 | 1007.6 |
| 20260906023052 | 31 | 117 | 0.0 | 6.4 | 0.00 | 0.00 | 0.00 | 43 | 1007.4 |
| 20260906021554 | 32 | 139 | 0.0 | 4.8 | 0.00 | 0.00 | 0.00 | 43 | 1007.1 |
| 20260906020055 | 32 | 129 | 0.0 | 3.2 | 0.00 | 0.00 | 0.00 | 41 | 1006.9 |
| 20260906014557 | 33 | 129 | 0.0 | 6.4 | 0.00 | 0.00 | 0.00 | 40 | 1006.6 |
| 20260906013050 | 33 | 124 | 0.0 | 6.4 | 0.00 | 0.00 | 0.00 | 39 | 1006.2 |
| 20260906011549 | 34 | 129 | 0.0 | 6.4 | 0.00 | 0.00 | 0.00 | 37 | 1006.1 |
| 20260906010048 | 35 | 110 | 0.0 | 6.4 | 0.00 | 0.00 | 0.00 | 37 | 1006.1 |
| 20260906004547 | 35 | 128 | 1.6 | 9.7 | 0.00 | 0.00 | 0.00 | 35 | 1006.0 |
| 20260906003047 | 36 | 107 | 3.2 | 14.5 | 0.00 | 0.00 | 0.00 | 34 | 1005.9 |
| 20260906001547 | 37 | 124 | 3.2 | 12.9 | 0.00 | 0.00 | 0.00 | 33 | 1005.9 |
| 20260906000045 | 37 | 110 | 4.8 | 16.1 | 0.00 | 0.00 | 0.00 | 33 | 1005.7 |
| 20260905234552 | 37 | 100 | 4.8 | 17.7 | 0.00 | 0.00 | 0.00 | 32 | 1005.5 |
| 20260905233045 | 37 | 96 | 3.2 | 14.5 | 0.00 | 0.00 | 0.00 | 32 | 1005.4 |
| 20260905231547 | 37 | 125 | 8.0 | 14.5 | 0.00 | 0.00 | 0.00 | 32 | 1005.4 |
| 20260905230101 | 38 | 139 | 9.7 | 17.7 | 0.00 | 0.00 | 0.00 | 31 | 1005.4 |
| 20260905224543 | 38 | 119 | 1.6 | 11.3 | 0.00 | 0.00 | 0.00 | 31 | 1005.4 |
| 20260905223042 | 38 | 145 | 6.4 | 12.9 | 0.00 | 0.00 | 0.00 | 30 | 1005.5 |
| 20260905221542 | 38 | 163 | 4.8 | 11.3 | 0.00 | 0.00 | 0.00 | 31 | 1005.5 |
| 20260905220038 | 37 | 88 | 3.2 | 12.9 | 0.00 | 0.00 | 0.00 | 32 | 1005.7 |